This is the latest recevied weather packets stored in our database for station/object N1JOV-7. If no packets are shown the sender has not sent any weather packets the latest 10 day(s).
| Time | Temp. | Humidity | Pressure | Rain* | Wind** | Luminosity | Snow |
|---|---|---|---|---|---|---|---|
| 1777561862 | 7.78° C | 99% | 1009.2 hPa | 0 mm | - | - | - |
| 1777561261 | 7.78° C | 99% | 1009.6 hPa | 0 mm | - | - | - |
| 1777560661 | 7.78° C | 99% | 1009.7 hPa | 0 mm | - | - | - |
| 1777560061 | 7.22° C | 99% | 1009.6 hPa | 0.76 mm | - | - | - |
| 1777559462 | 7.22° C | 99% | 1009.7 hPa | 0.76 mm | - | - | - |
| 1777558862 | 7.78° C | 99% | 1009.8 hPa | 0 mm | - | - | - |
| 1777558262 | 7.22° C | 99% | 1009.9 hPa | 0 mm | - | - | - |
| 1777557662 | 7.22° C | 99% | 1009.9 hPa | 0 mm | - | - | - |
| 1777557062 | 7.22° C | 99% | 1010.1 hPa | 0 mm | - | - | - |
| 1777556461 | 7.22° C | 99% | 1009.7 hPa | 0 mm | - | - | - |
| 1777555863 | 7.22° C | 99% | 1010 hPa | 0 mm | - | - | - |
| 1777555262 | 7.22° C | 99% | 1010.1 hPa | 0 mm | - | - | - |
| 1777554662 | 7.22° C | 99% | 1010.1 hPa | 0 mm | - | - | - |
| 1777554062 | 6.67° C | 99% | 1010.1 hPa | 0 mm | - | - | - |
| 1777553462 | 6.67° C | 99% | 1010.2 hPa | 1.27 mm | - | - | - |
| 1777552862 | 6.67° C | 99% | 1010.3 hPa | 1.27 mm | - | - | - |
| 1777552261 | 6.67° C | 99% | 1010.4 hPa | 0 mm | - | - | - |
| 1777551661 | 6.11° C | 99% | 1010.5 hPa | 1.02 mm | - | - | - |
| 1777551061 | 6.11° C | 99% | 1010.4 hPa | 6.1 mm | - | - | - |
| 1777550461 | 6.67° C | 99% | 1010.5 hPa | 2.79 mm | - | - | - |
| 1777549862 | 6.11° C | 99% | 1010.6 hPa | 1.78 mm | - | - | - |
| 1777549262 | 6.67° C | 99% | 1010.8 hPa | 0.51 mm | - | - | - |
| 1777548662 | 6.11° C | 99% | 1010.7 hPa | 3.05 mm | - | - | - |
| 1777548062 | 6.67° C | 99% | 1010.8 hPa | 2.54 mm | - | - | - |
| 1777547461 | 6.67° C | 99% | 1010.8 hPa | 1.78 mm | - | - | - |
* Rain latest hour (hover to see other rain measurements)
** Current wind speed in m/s (hover to see current wind gust speed)